Content
SEND FEEDBACK

Daily
Averages
Monthly
Summary
United States of America

BOSTON, MASSACHUSETTS


Home > North America > United States > Massachusetts
Elevation: 4 feet     Latitude: 42 22N     Longitude: 071 02W

WEATHER
 
SELECT A DAY
Number of Records: 207,210;   Date Range: 1/1/95 - 12/25/14
 
SHARE

PRINT THIS DATA

[ ← Previous Day ]
WEATHER ALMANAC - AUGUST 31, 2013
[ Next Day → ]
[ °C ]   °F
Weather ElementAverageHighLow
Temperature74.9 °F81 °F (11:54 am)69.1 °F (3:54 am)
Dewpoint69.1 °F71.6 °F (2:13 pm)66 °F (2:54 am)
Humidity82.4 %93 % (7:54 am)69 % (11:54 am)
Barometer29.81 in29.84 in (7:54 am)29.79 in (4:54 pm)
Wind Speed9.1 mph13.8 mph (5:04 pm)
Weather ElementAverage
Visibility7.2 mi
Wind DirectionSSW (209.3 °)

Weather ElementTotal
Precipitation---
Cooling Degree Days10.1 (Base 65)
Growing Degree Days25.1 (Base 50)
Averaged from 29 records on August 31, 2013
WEATHER CONDITIONS BREAKOUT
WIND DIRECTION BREAKOUT
WEATHER BY HOUR - AUGUST 31, 2013
[ °C ]   °F
Local TimeTemperatureDewpointHumidityBarometerVisibilityWind DirectionWind SpeedGust SpeedPrecipitationEventsConditions
1:54 AM71.1 °F66.9 °F87 %29.81 in10.0 miSW (220°)11.5 mphMostly Cloudy
2:54 AM71.1 °F66.0 °F84 %29.81 in10.0 miSW (230°)9.2 mphMostly Cloudy
3:54 AM69.1 °F66.0 °F90 %29.80 in8.0 miSSW (200°)9.2 mphMostly Cloudy
4:45 AM69.8 °F66.2 °F88 %29.80 in8.0 miSSW (210°)10.4 mphMostly Cloudy
4:54 AM70.0 °F66.9 °F90 %29.81 in7.0 miSSW (210°)9.2 mphMostly Cloudy
5:54 AM71.1 °F68.0 °F90 %29.83 in6.0 miNW (310°)8.1 mphMostly Cloudy
6:45 AM71.6 °F68.0 °F88 %29.82 in5.0 miSW (220°)8.1 mphOvercast
6:54 AM72.0 °F68.0 °F87 %29.83 in5.0 miSW (220°)9.2 mphOvercast
7:54 AM71.1 °F69.1 °F93 %29.84 in4.0 miSouth (170°)3.5 mph0.00 inRainLight Rain
8:54 AM71.1 °F69.1 °F93 %29.83 in4.0 miSouth (180°)4.6 mph0.00 inOvercast
9:24 AM73.4 °F69.8 °F88 %29.84 in5.0 miSouth (190°)6.9 mphMostly Cloudy
9:54 AM75.0 °F70.0 °F84 %29.83 in7.0 miSSW (210°)6.9 mphMostly Cloudy
10:54 AM77.0 °F70.0 °F79 %29.83 in8.0 miSSW (210°)5.8 mphMostly Cloudy
11:54 AM81.0 °F70.0 °F69 %29.82 in10.0 miSW (220°)9.2 mphMostly Cloudy
12:45 PM80.6 °F69.8 °F70 %29.82 in8.0 miSSW (210°)9.2 mphOvercast
12:54 PM80.1 °F69.1 °F69 %29.82 in8.0 miSW (220°)11.5 mphOvercast
1:54 PM79.0 °F71.1 °F77 %29.81 in8.0 miSSW (200°)6.9 mph0.00 inRainLight Rain
2:13 PM78.8 °F71.6 °F78 %29.80 in8.0 miSSW (210°)8.1 mph0.00 inOvercast
2:54 PM80.1 °F71.1 °F74 %29.80 in8.0 miSSW (210°)8.1 mph0.00 inOvercast
3:54 PM81.0 °F71.1 °F72 %29.80 in8.0 miSSW (200°)9.2 mphOvercast
4:54 PM80.1 °F70.0 °F71 %29.79 in8.0 miSSW (210°)10.4 mphOvercast
5:04 PM78.8 °F69.8 °F74 %29.79 in8.0 miSSW (200°)13.8 mphOvercast
5:54 PM77.0 °F70.0 °F79 %29.79 in7.0 miSSW (200°)12.7 mphOvercast
6:54 PM75.0 °F70.0 °F84 %29.79 in7.0 miSSW (200°)12.7 mphOvercast
7:54 PM73.9 °F70.0 °F87 %29.80 in7.0 miSSW (210°)9.2 mphMostly Cloudy
8:54 PM73.0 °F69.1 °F87 %29.81 in7.0 miSSW (200°)8.1 mphMostly Cloudy
9:54 PM73.0 °F69.1 °F87 %29.82 in7.0 miSouth (190°)9.2 mphMostly Cloudy
10:54 PM73.0 °F69.1 °F87 %29.81 in7.0 miSSW (200°)11.5 mphOvercast
11:54 PM73.9 °F69.1 °F85 %29.81 in7.0 miSSW (210°)12.7 mphMostly Cloudy
Hourly data recorded from KBOS, located miles away from Boston, Massachusetts







STORIES FROM OUR PARTNERS